Thunder radar more information blitzortung!


Radar de pluja more information rain snow radar


Visita la nostra xarxa de llocs de meteo:

Template documentation
and downloads

And another site



No particular awareness of the weather is required.    There are no Weather-warnings

Pagina Historial Weather Underground text

Diari Resum February 18, 2019 Unitats:  Mètric    Imperial   Tant
« Previous Dia
SegĂźent Dia »
Diari Setmana Mensual Anual Personalitzada
  Actual: Maxima: Minima: Media:
Temperatura: -12.1 °C -17.8 °C -16.4 °C -13.3 °C
Punt de rosada: -14.8 °C -17.8 °C -18.3 °C -16.1 °C
Humitat: 72 % Humidity % 57 % 71 %
Wind Speed: 3.7 km/h 0 km/h 0 km/h 6 km/h
RĂ fegues de vent: 0 km/h 0 km/h - -
Vent:East - - SE
Pression baro: 34567.7 hPa 0 hPa 34533.8 hPa -
Precipitacions: 0 mm      
Historical Graphs
 
 
Dades de taula per February 18, 2019
Temps Temperatura Punt de rosada Pression baro Vent Wind Speed RĂ fegues de vent Humitat Rainfall Rate (Hourly)
-17.8 °C -17.8 °C 0 hPa Calm     Humidity % 0 mm
00:04 -14.3 °C -16.8 °C 34669.3 hPa Calm     73 % 0 mm
00:09 -14.3 °C -16.8 °C 34669.3 hPa Calm     73 % 0 mm
00:14 -14.3 °C -16.8 °C 34669.3 hPa Calm     73 % 0 mm
00:19 -14.3 °C -16.9 °C 34669.3 hPa Calm     72 % 0 mm
00:24 -14.3 °C -16.9 °C 34669.3 hPa Calm     72 % 0 mm
00:29 -14.3 °C -16.7 °C 34669.3 hPa Calm     74 % 0 mm
00:34 -14.4 °C -16.8 °C 34669.3 hPa Calm     74 % 0 mm
00:39 -14.4 °C -16.7 °C 34669.3 hPa Calm     75 % 0 mm
00:44 -14.4 °C -16.7 °C 34669.3 hPa Calm     75 % 0 mm
00:49 -14.4 °C -16.8 °C 34669.3 hPa Calm     74 % 0 mm
00:54 -14.5 °C -16.8 °C 34669.3 hPa Calm     75 % 0 mm
00:59 -14.6 °C -16.9 °C 34669.3 hPa ENE 3.1 km/h   75 % 0 mm
01:04 -14.6 °C -16.9 °C 34669.3 hPa ENE 3.1 km/h   75 % 0 mm
01:09 -14.6 °C -16.9 °C 34669.3 hPa ENE 6 km/h 3.7 km/h 75 % 0 mm
01:14 -14.6 °C -16.8 °C 34669.3 hPa Calm     76 % 0 mm
01:19 -14.7 °C -16.8 °C 34669.3 hPa ENE 6 km/h   76 % 0 mm
01:24 -14.8 °C -17.1 °C 34669.3 hPa Calm     75 % 0 mm
01:29 -14.9 °C -17.3 °C 34669.3 hPa Calm     74 % 0 mm
01:34 -15 °C -17.3 °C 34669.3 hPa Calm     75 % 0 mm
01:39 -15.1 °C -17.3 °C 34669.3 hPa Calm     75 % 0 mm
01:44 -15.1 °C -17.3 °C 34669.3 hPa Calm     75 % 0 mm
01:49 -15.1 °C -17.3 °C 34669.3 hPa Calm     75 % 0 mm
01:54 -15.1 °C -17.4 °C 34669.3 hPa Calm     75 % 0 mm
01:59 -15.2 °C -17.4 °C 34669.3 hPa Calm     75 % 0 mm
02:04 -15.2 °C -17.4 °C 34669.3 hPa Calm     75 % 0 mm
02:09 -15.3 °C -17.6 °C 34669.3 hPa Calm     75 % 0 mm
02:14 -15.4 °C -17.7 °C 34669.3 hPa Calm     74 % 0 mm
02:19 -15.4 °C -17.9 °C 34669.3 hPa WSW 3.1 km/h 3.7 km/h 73 % 0 mm
02:24 -15.4 °C -17.9 °C 34669.3 hPa WSW 3.1 km/h 3.7 km/h 73 % 0 mm
02:29 -15.4 °C -17.8 °C 34669.3 hPa Calm     74 % 0 mm
02:34 -15.5 °C -17.8 °C 34669.3 hPa Calm     74 % 0 mm
02:39 -15.5 °C -17.8 °C 34669.3 hPa Calm     74 % 0 mm
02:44 -15.5 °C -17.8 °C 34669.3 hPa WSW 3.1 km/h 3.1 km/h 74 % 0 mm
02:49 -15.5 °C -17.8 °C 34669.3 hPa Calm   2.3 km/h 74 % 0 mm
02:54 -15.5 °C -17.8 °C 34669.3 hPa Calm     74 % 0 mm
02:59 -15.4 °C -17.9 °C 34669.3 hPa SW 3.1 km/h 3.7 km/h 73 % 0 mm
03:04 -15.6 °C -17.9 °C 34669.3 hPa WSW 3.1 km/h 4.2 km/h 74 % 0 mm
03:09 -15.6 °C -17.9 °C 34669.3 hPa SW 3.1 km/h 5.6 km/h 74 % 0 mm
03:14 -15.6 °C -17.9 °C 34669.3 hPa WSW 6 km/h 5.1 km/h 74 % 0 mm
03:19 -15.6 °C -17.8 °C 34669.3 hPa WSW 6 km/h 5.1 km/h 75 % 0 mm
03:24 -15.6 °C -17.8 °C 34669.3 hPa WSW 3.1 km/h   75 % 0 mm
03:29 -15.4 °C -17.7 °C 34669.3 hPa WSW 6 km/h 2.3 km/h 75 % 0 mm
03:34 -15.4 °C -17.6 °C 34669.3 hPa West 6 km/h 3.7 km/h 75 % 0 mm
03:39 -15.4 °C -17.6 °C 34669.3 hPa WSW 4.2 km/h 3.1 km/h 75 % 0 mm
03:44 -15.5 °C -17.7 °C 34635.4 hPa WSW 3.1 km/h 3.1 km/h 76 % 0 mm
03:49 -15.4 °C -17.5 °C 34635.4 hPa WSW 4.2 km/h 3.1 km/h 77 % 0 mm
03:54 -15.4 °C -17.6 °C 34635.4 hPa WSW 3.1 km/h 3.1 km/h 76 % 0 mm
03:59 -15.4 °C -17.4 °C 34635.4 hPa WSW 3.1 km/h 3.1 km/h 77 % 0 mm
04:04 -15.4 °C -17.5 °C 34635.4 hPa WSW 3.1 km/h 3.1 km/h 77 % 0 mm
04:09 -15.5 °C -17.6 °C 34635.4 hPa WSW 4.2 km/h 3.1 km/h 77 % 0 mm
04:14 -15.6 °C -17.7 °C 34635.4 hPa WSW 3.1 km/h 3.1 km/h 76 % 0 mm
04:19 -15.7 °C -17.8 °C 34635.4 hPa West 3.1 km/h 4.2 km/h 76 % 0 mm
04:24 -15.6 °C -17.7 °C 34635.4 hPa West 5.6 km/h 5.6 km/h 76 % 0 mm
04:29 -15.7 °C -17.8 °C 34635.4 hPa WSW 6 km/h 3.7 km/h 76 % 0 mm
04:34 -15.6 °C -17.7 °C 34635.4 hPa WSW 6 km/h 4.2 km/h 77 % 0 mm
04:39 -15.6 °C -17.7 °C 34635.4 hPa WSW 3.1 km/h 3.7 km/h 77 % 0 mm
04:44 -15.7 °C -17.7 °C 34635.4 hPa Calm   2.3 km/h 77 % 0 mm
04:49 -15.7 °C -17.6 °C 34635.4 hPa Calm     78 % 0 mm
04:54 -15.7 °C -17.6 °C 34635.4 hPa Calm     78 % 0 mm
04:59 -15.7 °C -17.5 °C 34635.4 hPa Calm     79 % 0 mm
05:04 -15.7 °C -17.7 °C 34635.4 hPa WSW 3.1 km/h   78 % 0 mm
05:09 -15.8 °C -17.7 °C 34635.4 hPa Calm     78 % 0 mm
05:14 -15.8 °C -17.8 °C 34635.4 hPa Calm     78 % 0 mm
05:19 -15.7 °C -17.5 °C 34635.4 hPa NW 5.1 km/h 3.1 km/h 79 % 0 mm
05:24 -15.6 °C -17.5 °C 34635.4 hPa Calm     78 % 0 mm
05:29 -15.6 °C -17.5 °C 34635.4 hPa Calm     78 % 0 mm
05:34 -15.6 °C -17.4 °C 34635.4 hPa Calm     79 % 0 mm
05:39 -15.6 °C -17.5 °C 34635.4 hPa Calm     78 % 0 mm
05:44 -15.7 °C -17.6 °C 34635.4 hPa Calm     78 % 0 mm
05:49 -15.6 °C -17.6 °C 34635.4 hPa Calm     78 % 0 mm
05:54 -15.7 °C -17.5 °C 34635.4 hPa Calm     79 % 0 mm
05:59 -15.6 °C -17.4 °C 34635.4 hPa Calm     79 % 0 mm
06:04 -15.6 °C -17.4 °C 34635.4 hPa Calm     79 % 0 mm
06:09 -15.6 °C -17.4 °C 34635.4 hPa Calm     79 % 0 mm
06:14 -15.7 °C -17.6 °C 34635.4 hPa Calm     79 % 0 mm
06:19 -15.8 °C -17.6 °C 34635.4 hPa Calm     79 % 0 mm
06:24 -15.7 °C -17.5 °C 34635.4 hPa NW 3.1 km/h 2.3 km/h 79 % 0 mm
06:29 -15.7 °C -17.5 °C 34635.4 hPa Calm     79 % 0 mm
06:34 -15.7 °C -17.6 °C 34635.4 hPa Calm     79 % 0 mm
06:39 -15.8 °C -17.7 °C 34635.4 hPa Calm     79 % 0 mm
06:44 -15.9 °C -17.8 °C 34635.4 hPa Calm     79 % 0 mm
06:49 -16 °C -17.8 °C 34635.4 hPa Calm     79 % 0 mm
06:54 -16.1 °C -17.9 °C 34635.4 hPa Calm     79 % 0 mm
06:59 -16.1 °C -17.9 °C 34635.4 hPa Calm     79 % 0 mm
07:04 -16.2 °C -18.1 °C 34635.4 hPa Calm     79 % 0 mm
07:09 -16.3 °C -18.2 °C 34635.4 hPa Calm     78 % 0 mm
07:14 -16.3 °C -18.2 °C 34635.4 hPa West 6.3 km/h 3.7 km/h 78 % 0 mm
07:19 -16.3 °C -18.2 °C 34635.4 hPa Calm     78 % 0 mm
07:24 -16.3 °C -18.2 °C 34635.4 hPa Calm     78 % 0 mm
07:29 -16.3 °C -18.2 °C 34635.4 hPa Calm     78 % 0 mm
07:34 -16.4 °C -18.3 °C 34635.4 hPa Calm     78 % 0 mm
07:39 -16.4 °C -18.3 °C 34635.4 hPa Calm     78 % 0 mm
07:44 -16.4 °C -18.3 °C 34635.4 hPa WSW 3.1 km/h 3.7 km/h 78 % 0 mm
07:49 -16.3 °C -18.2 °C 34635.4 hPa Calm     78 % 0 mm
07:54 -16.3 °C -18.2 °C 34635.4 hPa WSW 3.1 km/h   78 % 0 mm
07:59 -16.3 °C -18.2 °C 34635.4 hPa West 6 km/h 4.2 km/h 78 % 0 mm
08:04 -16.3 °C -18.2 °C 34635.4 hPa West 3.1 km/h 3.7 km/h 78 % 0 mm
08:09 -16.3 °C -18.2 °C 34635.4 hPa Calm     78 % 0 mm
08:14 -16.2 °C -18.2 °C 34635.4 hPa Calm     78 % 0 mm
08:19 -16.2 °C -18.2 °C 34635.4 hPa SW 3.7 km/h 3.1 km/h 78 % 0 mm
08:24 -16.2 °C -18.1 °C 34635.4 hPa WSW 3.1 km/h   78 % 0 mm
08:29 -16.2 °C -18 °C 34669.3 hPa WSW 3.1 km/h   79 % 0 mm
08:34 -16.1 °C -17.9 °C 34669.3 hPa WSW 3.7 km/h   79 % 0 mm
08:39 -16.1 °C -17.9 °C 34669.3 hPa WSW 3.1 km/h   79 % 0 mm
08:44 -16.1 °C -17.9 °C 34669.3 hPa Calm     79 % 0 mm
08:49 -16.1 °C -17.9 °C 34669.3 hPa Calm     79 % 0 mm
08:54 -16.1 °C -17.9 °C 34669.3 hPa Calm     79 % 0 mm
08:59 -15.9 °C -17.7 °C 34669.3 hPa Calm     80 % 0 mm
09:04 -15.9 °C -17.7 °C 34669.3 hPa Calm     80 % 0 mm
09:09 -15.8 °C -17.6 °C 34669.3 hPa Calm     80 % 0 mm
09:14 -15.7 °C -17.4 °C 34669.3 hPa Calm     80 % 0 mm
09:19 -15.7 °C -17.4 °C 34669.3 hPa West 3.1 km/h   80 % 0 mm
09:24 -15.6 °C -17.3 °C 34669.3 hPa Calm     80 % 0 mm
09:29 -15.4 °C -17.1 °C 34669.3 hPa Calm     81 % 0 mm
09:34 -15.3 °C -16.9 °C 34669.3 hPa NNE 3.1 km/h   81 % 0 mm
09:39 -15.2 °C -16.9 °C 34669.3 hPa West 6 km/h 3.1 km/h 80 % 0 mm
09:44 -14.9 °C -16.6 °C 34669.3 hPa NNE 4.2 km/h 2.3 km/h 81 % 0 mm
09:49 -14.8 °C -16.6 °C 34669.3 hPa NE 3.7 km/h 3.1 km/h 80 % 0 mm
09:54 -14.8 °C -16.6 °C 34669.3 hPa WNW 6 km/h   80 % 0 mm
09:59 -14.6 °C -16.4 °C 34669.3 hPa ENE 3.1 km/h 2.3 km/h 80 % 0 mm
10:04 -14.4 °C -16.2 °C 34669.3 hPa East 6 km/h   80 % 0 mm
10:09 -14.2 °C -16.1 °C 34669.3 hPa Calm   3.1 km/h 79 % 0 mm
10:14 -14.2 °C -16.1 °C 34669.3 hPa NNE 6 km/h   79 % 0 mm
10:19 -13.9 °C -15.8 °C 34669.3 hPa South 3.1 km/h   79 % 0 mm
10:24 -13.7 °C -15.7 °C 34669.3 hPa ESE 5.6 km/h 3.1 km/h 78 % 0 mm
10:29 -13.7 °C -15.7 °C 34669.3 hPa NNE 6 km/h 5.1 km/h 78 % 0 mm
10:34 -13.8 °C -15.9 °C 34669.3 hPa ENE 9 km/h 4.2 km/h 77 % 0 mm
10:39 -13.6 °C -15.7 °C 34669.3 hPa NNW 6 km/h 4.2 km/h 77 % 0 mm
10:44 -13.6 °C -15.7 °C 34669.3 hPa South 3.1 km/h 2.3 km/h 77 % 0 mm
10:49 -13.3 °C -15.4 °C 34669.3 hPa ENE 6 km/h 3.1 km/h 77 % 0 mm
10:54 -13.3 °C -15.6 °C 34669.3 hPa NNE 9.3 km/h 3.1 km/h 76 % 0 mm
10:59 -13.2 °C -15.5 °C 34669.3 hPa NNE 9.3 km/h 3.1 km/h 75 % 0 mm
11:04 -13.1 °C -15.4 °C 34669.3 hPa NNE 9 km/h 3.1 km/h 75 % 0 mm
11:09 -13.1 °C -15.5 °C 34669.3 hPa ENE 9 km/h 3.1 km/h 74 % 0 mm
11:14 -13.1 °C -15.5 °C 34669.3 hPa NNE 7.6 km/h 5.6 km/h 74 % 0 mm
11:19 -13 °C -15.5 °C 34669.3 hPa ENE 6.3 km/h   73 % 0 mm
11:24 -12.8 °C -15.4 °C 34669.3 hPa SSE 9 km/h 5.1 km/h 72 % 0 mm
11:29 -12.6 °C -15.2 °C 34669.3 hPa East 3.7 km/h   72 % 0 mm
11:34 -12.4 °C -15.1 °C 34669.3 hPa NW 6 km/h 3.1 km/h 72 % 0 mm
11:39 -12.4 °C -15.2 °C 34669.3 hPa SSW 6 km/h 2.3 km/h 71 % 0 mm
11:44 -12.2 °C -14.9 °C 34669.3 hPa ESE 9 km/h 3.7 km/h 71 % 0 mm
11:49 -12 °C -14.8 °C 34669.3 hPa NNE 3.1 km/h   71 % 0 mm
11:54 -11.9 °C -14.8 °C 34669.3 hPa NNW 6 km/h 6.3 km/h 70 % 0 mm
11:59 -11.7 °C -14.8 °C 34635.4 hPa WNW 6 km/h   69 % 0 mm
12:04 -11.5 °C -14.6 °C 34635.4 hPa ENE 3.1 km/h 3.1 km/h 69 % 0 mm
12:09 -11.4 °C -14.4 °C 34635.4 hPa ENE 6.3 km/h 5.6 km/h 69 % 0 mm
12:14 -11.4 °C -14.6 °C 34635.4 hPa NNE 6 km/h 3.1 km/h 68 % 0 mm
12:19 -11.4 °C -14.4 °C 34635.4 hPa NNW 9 km/h 5.1 km/h 69 % 0 mm
12:24 -11.2 °C -14.4 °C 34635.4 hPa ESE 9.8 km/h 7.6 km/h 68 % 0 mm
12:29 -11.3 °C -14.4 °C 34635.4 hPa North 9 km/h 9.8 km/h 68 % 0 mm
12:34 -11.2 °C -14.5 °C 34635.4 hPa SSE 9 km/h 5.1 km/h 67 % 0 mm
12:39 -10.9 °C -14.1 °C 34635.4 hPa WSW 6 km/h 3.1 km/h 68 % 0 mm
12:44 -10.9 °C -14.2 °C 34635.4 hPa SE 9.3 km/h 8 km/h 67 % 0 mm
12:49 -10.7 °C -14.1 °C 34635.4 hPa NNE 7.6 km/h 3.7 km/h 67 % 0 mm
12:54 -10.9 °C -14.3 °C 34635.4 hPa NNE 3.1 km/h   66 % 0 mm
12:59 -10.8 °C -14.2 °C 34601.5 hPa SE 9 km/h 6.3 km/h 66 % 0 mm
13:04 -10.6 °C -14.2 °C 34601.5 hPa ENE 9.8 km/h 8 km/h 65 % 0 mm
13:09 -10.6 °C -14.2 °C 34601.5 hPa NE 11.9 km/h 8.5 km/h 65 % 0 mm
13:14 -10.7 °C -14.2 °C 34601.5 hPa East 9 km/h 5.6 km/h 65 % 0 mm
13:19 -10.6 °C -14.3 °C 34601.5 hPa ESE 8 km/h 8 km/h 64 % 0 mm
13:24 -10.6 °C -14.3 °C 34601.5 hPa ENE 9.3 km/h 5.6 km/h 64 % 0 mm
13:29 -10.4 °C -14.1 °C 34601.5 hPa SE 9 km/h 9.8 km/h 64 % 0 mm
13:34 -10.3 °C -14.1 °C 34601.5 hPa NNE 8 km/h 3.1 km/h 64 % 0 mm
13:39 -10.3 °C -14.2 °C 34601.5 hPa ESE 11.9 km/h 11.6 km/h 63 % 0 mm
13:44 -10.2 °C -14.1 °C 34601.5 hPa SE 7.6 km/h 5.1 km/h 63 % 0 mm
13:49 -10.2 °C -14.1 °C 34601.5 hPa SE 15 km/h 9.3 km/h 63 % 0 mm
13:54 -10.1 °C -13.9 °C 34601.5 hPa East 17.9 km/h 7.6 km/h 63 % 0 mm
13:59 -9.6 °C -13.5 °C 34601.5 hPa ESE 8 km/h 5.1 km/h 63 % 0 mm
14:04 -9.8 °C -13.8 °C 34601.5 hPa ESE 11.9 km/h 9.3 km/h 62 % 0 mm
14:09 -9.8 °C -13.8 °C 34601.5 hPa NE 7.6 km/h   62 % 0 mm
14:14 -9.9 °C -13.9 °C 34601.5 hPa ESE 12.7 km/h 9.3 km/h 62 % 0 mm
14:19 -9.8 °C -13.8 °C 34601.5 hPa East 4.2 km/h 4.2 km/h 62 % 0 mm
14:24 -9.8 °C -13.8 °C 34601.5 hPa SSE 11.9 km/h 5.1 km/h 62 % 0 mm
14:29 -9.6 °C -13.7 °C 34567.7 hPa SE 7.6 km/h 6.3 km/h 61 % 0 mm
14:34 -9.6 °C -13.7 °C 34567.7 hPa ENE 9 km/h 5.1 km/h 61 % 0 mm
14:39 -9.6 °C -13.7 °C 34567.7 hPa SE 15.3 km/h 10.3 km/h 61 % 0 mm
14:44 -9.3 °C -13.4 °C 34567.7 hPa ESE 11.1 km/h 5.6 km/h 61 % 0 mm
14:49 -9.3 °C -13.6 °C 34567.7 hPa SSW 9 km/h 3.7 km/h 60 % 0 mm
14:54 -9.2 °C -13.7 °C 34567.7 hPa SE 9 km/h 8.5 km/h 59 % 0 mm
14:59 -9.2 °C -13.6 °C 34567.7 hPa NNE 9 km/h 2.3 km/h 59 % 0 mm
15:04 -9.3 °C -13.9 °C 34567.7 hPa SSE 16.6 km/h 9.8 km/h 58 % 0 mm
15:09 -9.3 °C -13.8 °C 34567.7 hPa NNW 8 km/h 6.3 km/h 58 % 0 mm
15:14 -9.4 °C -14.1 °C 34533.8 hPa ENE 11.9 km/h 12.7 km/h 57 % 0 mm
15:19 -9.4 °C -14 °C 34533.8 hPa East 19.6 km/h 12.2 km/h 58 % 0 mm
15:24 -9.4 °C -14 °C 34533.8 hPa ENE 11.9 km/h 10.3 km/h 58 % 0 mm
15:29 -9.4 °C -13.9 °C 34533.8 hPa East 11.9 km/h 9.3 km/h 58 % 0 mm
15:34 -9.3 °C -13.9 °C 34533.8 hPa East 15 km/h 9.3 km/h 58 % 0 mm
15:39 -9.4 °C -14 °C 34533.8 hPa East 9.8 km/h 8.5 km/h 58 % 0 mm
15:44 -9.5 °C -14.1 °C 34533.8 hPa ESE 15 km/h 9.8 km/h 58 % 0 mm
15:49 -9.4 °C -14 °C 34533.8 hPa NNE 9.8 km/h 11.1 km/h 58 % 0 mm
15:54 -9.5 °C -14.1 °C 34533.8 hPa ENE 11.9 km/h 7.6 km/h 58 % 0 mm
15:59 -9.4 °C -14 °C 34533.8 hPa ESE 19.2 km/h 14 km/h 58 % 0 mm
16:04 -9.6 °C -14.2 °C 34533.8 hPa East 17.9 km/h 17.9 km/h 58 % 0 mm
16:09 -9.7 °C -14.3 °C 34533.8 hPa ENE 17.9 km/h 11.1 km/h 58 % 0 mm
16:14 -9.7 °C -14.3 °C 34533.8 hPa ENE 17.9 km/h 10.3 km/h 58 % 0 mm
16:19 -9.7 °C -14.1 °C 34533.8 hPa ESE 18.3 km/h 15.6 km/h 59 % 0 mm
16:24 -9.8 °C -14.2 °C 34533.8 hPa ESE 15 km/h 9.8 km/h 59 % 0 mm
16:29 -9.8 °C -14.2 °C 34533.8 hPa ESE 15 km/h 12.2 km/h 59 % 0 mm
16:34 -9.8 °C -14.2 °C 34533.8 hPa East 15 km/h 14.5 km/h 59 % 0 mm
16:39 -9.8 °C -14.2 °C 34533.8 hPa ESE 12.7 km/h 9.3 km/h 59 % 0 mm
16:44 -9.8 °C -14.1 °C 34533.8 hPa ESE 15 km/h 11.6 km/h 60 % 0 mm
16:49 -9.9 °C -14.2 °C 34533.8 hPa SSW 17.9 km/h 15.3 km/h 60 % 0 mm
16:54 -9.9 °C -14.2 °C 34533.8 hPa East 15 km/h 11.1 km/h 60 % 0 mm
16:59 -10.1 °C -14.3 °C 34533.8 hPa ESE 17.9 km/h 14.5 km/h 60 % 0 mm
17:04 -10.2 °C -14.3 °C 34533.8 hPa ESE 15 km/h 14.5 km/h 61 % 0 mm
17:09 -10.2 °C -14.3 °C 34533.8 hPa East 15 km/h 8 km/h 61 % 0 mm
17:14 -10.2 °C -14.3 °C 34533.8 hPa East 11.9 km/h 8 km/h 61 % 0 mm
17:19 -10.3 °C -14.4 °C 34533.8 hPa East 11.9 km/h 8 km/h 61 % 0 mm
17:24 -10.4 °C -14.4 °C 34533.8 hPa SE 11.9 km/h 11.6 km/h 62 % 0 mm
17:29 -10.6 °C -14.5 °C 34533.8 hPa ESE 11.9 km/h 6.8 km/h 62 % 0 mm
17:34 -10.6 °C -14.4 °C 34533.8 hPa ESE 11.9 km/h 6.8 km/h 63 % 0 mm
17:39 -10.7 °C -14.5 °C 34533.8 hPa ENE 11.9 km/h 12.7 km/h 63 % 0 mm
17:43 -10.7 °C -14.6 °C 34533.8 hPa East 15 km/h 5.6 km/h 63 % 0 mm
17:49 -10.8 °C -14.5 °C 34533.8 hPa ESE 20.9 km/h 10.3 km/h 64 % 0 mm
17:54 -10.9 °C -14.6 °C 34533.8 hPa ENE 15 km/h 11.6 km/h 64 % 0 mm
17:59 -10.9 °C -14.6 °C 34533.8 hPa NE 15 km/h 10.3 km/h 64 % 0 mm
18:04 -11 °C -14.6 °C 34533.8 hPa ENE 15 km/h 11.6 km/h 65 % 0 mm
18:09 -11.1 °C -14.7 °C 34533.8 hPa ENE 15 km/h 5.6 km/h 65 % 0 mm
18:14 -11.2 °C -14.6 °C 34533.8 hPa ENE 20.9 km/h 12.2 km/h 66 % 0 mm
18:19 -11.3 °C -14.7 °C 34533.8 hPa ENE 15.3 km/h 14 km/h 66 % 0 mm
18:24 -11.3 °C -14.8 °C 34533.8 hPa ESE 11.9 km/h 8.5 km/h 66 % 0 mm
18:29 -11.4 °C -14.7 °C 34533.8 hPa East 9.8 km/h 8 km/h 67 % 0 mm
18:34 -11.5 °C -14.8 °C 34533.8 hPa ESE 9 km/h 8.5 km/h 67 % 0 mm
18:39 -11.6 °C -14.7 °C 34533.8 hPa ESE 9 km/h 8.5 km/h 68 % 0 mm
18:44 -11.6 °C -14.8 °C 34533.8 hPa ESE 9 km/h 8.5 km/h 68 % 0 mm
18:49 -11.7 °C -14.8 °C 34533.8 hPa ENE 7.6 km/h 10.3 km/h 68 % 0 mm
18:54 -11.7 °C -14.7 °C 34533.8 hPa ENE 7.6 km/h 10.3 km/h 69 % 0 mm
18:59 -11.7 °C -14.8 °C 34533.8 hPa ESE 11.9 km/h 8 km/h 69 % 0 mm
19:04 -11.8 °C -14.8 °C 34533.8 hPa East 11.9 km/h 5.6 km/h 69 % 0 mm
19:09 -11.8 °C -14.7 °C 34533.8 hPa East 4.2 km/h 5.6 km/h 70 % 0 mm
19:14 -11.8 °C -14.8 °C 34533.8 hPa East 6 km/h 6.8 km/h 70 % 0 mm
19:19 -11.9 °C -14.8 °C 34533.8 hPa ENE 9 km/h 4.2 km/h 70 % 0 mm
19:24 -11.9 °C -14.8 °C 34533.8 hPa NNE 6.8 km/h 6.3 km/h 71 % 0 mm
19:29 -11.9 °C -14.8 °C 34567.7 hPa NNE 6 km/h 7.6 km/h 71 % 0 mm
19:34 -12 °C -14.8 °C 34567.7 hPa ESE 9.3 km/h 6.3 km/h 71 % 0 mm
19:39 -12 °C -14.7 °C 34567.7 hPa East 6.8 km/h 5.6 km/h 72 % 0 mm
19:44 -12.1 °C -14.8 °C 34567.7 hPa East 8 km/h 6.8 km/h 72 % 0 mm
19:49 -12.1 °C -14.8 °C 34567.7 hPa ENE 7.6 km/h 5.6 km/h 72 % 0 mm
19:54 -12.1 °C -14.8 °C 34567.7 hPa East 3.7 km/h   72 % 0 mm
Meteo Sesrovires
Elogis d' Weather Underground - 1.5 mb

Guio original per  Jim McMurry - jmcmurry@mwt.net Adaptat per a la plantilla per  Wim van der Kuil - Leuven-Template.eu

Trobareu la nostra informacio del temps tambe a:

Weather Underground

AWEKAS